SL-16 DEB

Satellite information

Favourite Embed

Satellite Type and Status

DEBRISIN ORBIT

Key statistics

Satellite SL-16 DEB at a glance.

Uptime

9488

Days in orbit

Revolutions

≈ 14.5

Per day

Orbit

SSO

Sun Synchronous Orbit

Inclination

98.4

Latest

Satellite identification and parameters

Extended collection of information and parameters for SL-16 DEB.

Object identification

Identified? True

Debris? True

Object name: SL-16 DEB

International designator: 1999-039D

Object number (NORAD): 25863

Object ID (CCSDS): 25863

Country: COMMONWEALTH OF INDEPENDENT STATES (CIS)

Current information (Y/N): Y

RCS size: SMALL

Orbital parameters

Period: 99.581 minutes

Inclination: 98.4061 deg

SMA: 7116.69 km

Apoapsis: 844.781 km

Periapsis: 632.329 km

RAAN: 257.9257 deg

Eccentricy: 0.0149263

Argument of periapsis: 167.6831 deg

Mean anomaly: 310.7289 deg

Mean motion: 14.46057999 rev/day

Mean motion (dot): 0.00000742 rev/day2

B* drag term: 0.00019342 1/REarth

Two-line elements (TLE)

Creation date: July 8, 2025, 2:27 a.m.

Reference frame: TEME

Reference center: EARTH

Epoch: July 7, 2025, 6:59 p.m. UTC

TLE line 0: 0 SL-16 DEB

TLE line 1: 1 25863U 99039D 25188.79143228 .00000742 00000-0 19342-3 0 9999

TLE line 2: 2 25863 98.4061 257.9257 0149263 167.6831 310.7289 14.46057999365310

Live tracking on map

Real-time ground track for satellite SL-16 DEB.

In-orbit conjunctions

A list of the most updated potential collisions computed for object SL-16 DEB.

Target Orbit TCA Probability of collision Miss distance Type
FENGYUN 1C DEB SSO 2024-10-04 23:16:51 0.0003288687 99.0 (m) DEBRIS
FENGYUN 1C DEB SSO 2024-09-28 17:37:39 0.0002917655 37.0 (m) DEBRIS

Associated space launch

Okean-O was a joint Ukrainian and Russian remote sensing satellite program designed as a follow on to the Okean-O1 series. It was designed to gather remote sensing data crucial for research of natural resources of the Earth and world oceans. The mission also included ecological monitoring and management of externalities (weather forecast, hazards prevention).

SL-16 DEB was lifted into orbit during the mission ‘Zenit-2 | Okean-O’, on board a Zenit-2 space rocket.

The launch took place on July 17, 1999, 5:38 a.m. from 45/1.

For more information about the launch, click the button.

Launch to space Zenit-2 | Okean-O
Zenit-2 | Okean-O

Agency: N/A

Status: Launch Successful

Launch date: July 17, 1999, 5:38 a.m. UTC

Rocket: Zenit-2

Launch pad: 45/1

Location: Baikonur Cosmodrome, Republic of Kazakhstan

...

Latest news about this satellite

There are no fresh news available about this satellite. Check back as we update our databases every day.


Newsletter sign-up

Weekly statistics, charts and insights to help you stay on top of the space industry.